Voltar ao catálogo

STARLINK-35559

AtivoComunicaçõesVLEO
NORAD 66095·PAYLOAD·🇺🇸 United States

Lançado Oct 19, 2025 de Vandenberg Space Force Base

Loading…

Próximas Passagens (próximas 24 horas)

TLE

AtualizadoSource: CelesTrak SupGP

Época: Sep 14, 2026, 21:05 UTC

1 66095C 25236K   26257.87895833  .00002958  00000+0  87408-4 0  2578
2 66095  53.1586 304.1195 0001127  82.9899 299.0841 15.34386377    16

Acompanhe STARLINK-35559 em tempo real com AllMySat

Download on the App Store